Weather in Tymsk

Russia / Tomsk District     59°22′31″N   80°17′50″E
temp.,
°C
wind,
m/s
gust,
m/s
humid.,
%
clouds,
%
prec.,
mm/h
press.,
hPa
HPBL,
m
30 june, thu
thu3001:00+15e81792100 4.7 988617
04:00+14ese61396100 1.3 987701
07:00+14sse5998100 6.3 986726
10:00+12ssw589164 2.2 987601
13:00+13sse5772100 2.3 9901139
16:00+12se5874100 0.1 9911044
19:00+10ese51093100 0.8 991763
22:00+10e4896100 1.3 991605
1 july, fri
fri101:00+10ne2397100 2.5 991210
04:00+10w2297100 1.1 99283
07:00+10ssw1297100 2.3 99377
10:00+10sse1194100 1.1 99397
13:00+11wsw1191100 1.9 995160
16:00+12ne118598 0.2 996422
19:00+12n4587100 0.7 997508
22:00+10nnw3692100 0.0 998344
2 july, sat
sat201:00+10wnw3596100 0.1 998229
04:00+10w2497100 1.4 998151
07:00+10wsw4799100 4.1 998334
10:00+11nnw4797100 2.3 998405
13:00+15nnw4674100 3.1 10001130
16:00+16wnw6668100 0.4 1000978
19:00+15nw6879100 1.0 1001786
22:00+13nw4895100 0.6 1002274
3 july, sun
sun301:00+12w4109399 0.6 1002273
04:00+10w499299 0.0 1002187
07:00+11w4891100 0.0 1002246
10:00+15wnw687070 0.0 1003640
13:00+12wnw5780100 0.0 1004361
16:00+16nw6762100 0.0 10041012
19:00+13wnw477678 0.0 1005502
22:00+12nnw348479 0.1 1005105
4 july, mon
mon401:00+9n2391100 0.1 100538
04:00+9nne2289100 0.2 100584
07:00+9n1296100 3.1 1005110
10:00+9n1293100 0.8 1005179
13:00+11ene118565 0.8 1005292
16:00+16ene125973 0.1 10041210
19:00+14n347784 0.5 1004434
22:00+12nne368597 0.1 1004151